Regional Weather Roundup
Issued by NWS Cleveland, OH

Home | Current Version | Previous Version | Graphics & Text | Print | Product List | Glossary On
Versions: 1 2 3 4 5 6 7 8 9 10 11 12 13 14 15 16 17 18 19 20 21 22 23 24 25 26 27 28 29 30 31 32 33 34 35 36 37 38 39 40 41 42 43 44 45 46 47 48 49 50
000
ASUS41 KCLE 162010
RWRCLE
OHIO REGIONAL WEATHER ROUNDUP
NATIONAL WEATHER SERVICE CLEVELAND, OH
400 PM EDT WED APR 16 2014

NOTE: "FAIR" INDICATES FEW OR NO CLOUDS BELOW 12,000 FEET WITH NO
SIGNIFICANT WEATHER AND/OR OBSTRUCTIONS TO VISIBILITY.

OHZ001>008-015>018-024>027-034-035-043-044-162100-
   NORTHWEST OHIO

CITY           SKY/WX    TMP DP  RH WIND       PRES   REMARKS
DEFIANCE       SUNNY     45  21  38 E10       30.36F
FINDLAY        SUNNY     44  24  45 S9        30.37F
TOLEDO EXPRESS MOSUNNY   43  21  41 VRB7      30.38F
TOLEDO EXEC    MOSUNNY   43  22  43 SE10G18   30.40F
LIMA           SUNNY     47  25  42 SE13G21   30.35F
$$

OHZ009>014-019>023-028>033-038-089-162100-
   NORTHEAST OHIO

CITY           SKY/WX    TMP DP  RH WIND       PRES   REMARKS
CLE-HOPKINS    MOSUNNY   42  22  44 NE16      30.44F
CLE-LAKEFRONT  SUNNY     37  23  56 NE15      30.43F
CUY CO. ARPT   MOSUNNY   39  21  48 NE12      30.43F
LORAIN-ELYRIA  SUNNY     44  23  43 VRB7      30.41F
ASHTABULA      SUNNY     39  18  42 E7        30.45F
AKRON-CANTON   MOSUNNY   39  15  37 SE9       30.41F
WOOSTER        SUNNY     41  21  44 SE13      30.40F
MANSFIELD      SUNNY     41  23  48 E8        30.37F
YOUNGSTOWN     MOSUNNY   40  15  36 CALM      30.42F
$$

OHZ042-051>053-060>062-070>072-077>081-162100-
  SOUTHWEST OHIO

CITY           SKY/WX    TMP DP  RH WIND       PRES   REMARKS
CINC-COVINGTON PTSUNNY   48  19  31 E9        30.32F
CINC-LUNKEN    SUNNY     49  20  31 VRB6      30.35F
HAMILTON       SUNNY     50  21  32 SE8       30.35F
DAYTON         PTSUNNY   46  22  38 SE13G18   30.35F
WRIGHT-PAT AFB MOSUNNY   47  21  36 SE8       30.35F
DAYTON GENERAL SUNNY     47  21  35 E10       30.33F
WILMINGTON     SUNNY     46  19  34 E12       30.33F
$$

OHZ036-037-039>041-045>050-054>059-063>069-073>076-082>088-162100-
  CENTRAL AND SOUTHEAST OHIO

CITY           SKY/WX    TMP DP  RH WIND       PRES   REMARKS
COLUMBUS       MOSUNNY   48  22  35 SE10G17   30.37F
OSU AIRPORT    SUNNY     46  19  34 SE13G18   30.36F
BOLTON FIELD   SUNNY    N/A N/A N/A E13       30.37F
RICKENBACK AFB SUNNY     49  15  25 E13       30.36F
NEWARK         SUNNY     45  19  35 SE12      30.37F
MARION         SUNNY     44  24  45 SE10      30.37F
LANCASTER      SUNNY     48  22  35 E12G21    30.37F
ZANESVILLE     SUNNY     45  16  31 E6        30.39F
NEW PHILLY     SUNNY     44  16  32 SE9       30.41F
$$



USA.gov is the U.S. government's official web portal to all federal, state and local government web resources and services.